User: anonymous   Login
Location: Bismarck
(46.7731°N, 100.8200°W)
Time: 00:22:44
(UTC-06:00)
Language:

Landsat 7 - Orbit

View from above orbital plane
View from above orbital plane
View from above satellite
View from above satellite

Ground track
Ground track

The orbit data is extracted from the following two-line orbital elements,

1 25682U 99020A   15025.78398631  .00000366  00000-0  91230-4 0   132
2 25682 098.2133 097.5001 0001163 085.5851 274.5489 14.57099574839400
Epoch (UTC): 25 January 2015 18:48:56
Eccentricity: 0.0001163
inclination: 98.2133°
perigee height: 702 km
apogee height: 703 km
right ascension of ascending node: 97.5001°
argument of perigee: 85.5851°
revolutions per day: 14.57099574
mean anomaly at epoch: 274.5489°
orbit number at epoch: 83940

The dashed part of the orbit path shows where the satellite is in the earth's shadow,  

DLR